EWG9UH EDDS-EGCC

Flight info

Callsign EWG9UH
Flight time 1h 24m
Altitude 38000
Route VESID4B/25 VESID Y127 UBEGA Z818 RINEX Z12 XIDOD Q762 OLGAD DCT ADENU L608 DENUT L610 LAM UN57 WELIN T420 TNT
Aircraft A320/M-SDE3FGHIRWY/LB1

Departure

Time 2026-05-06 18:33
Airport Stuttgart Airport (EDDS)

Arrival

Time 2026-05-06 19:57
Airport Manchester Airport (EGCC)
Time Latitude Longitude Altitude Speed Heading
2026-05-06 18:00 48.68930 9.19652 1286 ft 0 kts 343°
2026-05-06 18:16 48.68920 9.19657 1285 ft 3 kts 343°
2026-05-06 18:16 48.68904 9.19665 1291 ft 3 kts 343°
2026-05-06 18:16 48.68887 9.19673 1287 ft 2 kts 348°
2026-05-06 18:16 48.68871 9.19669 1287 ft 2 kts 45°
2026-05-06 18:17 48.68863 9.19656 1287 ft 0 kts 70°
2026-05-06 18:17 48.68863 9.19657 1287 ft 0 kts 70°
2026-05-06 18:20 48.68865 9.19666 1286 ft 3 kts 74°
2026-05-06 18:20 48.68874 9.19726 1288 ft 9 kts 77°
2026-05-06 18:20 48.68885 9.19841 1285 ft 12 kts 103°
2026-05-06 18:20 48.68820 9.19923 1285 ft 13 kts 112°
2026-05-06 18:21 48.68842 9.20060 1285 ft 13 kts 73°
2026-05-06 18:21 48.68867 9.20192 1288 ft 15 kts 73°
2026-05-06 18:21 48.68899 9.20362 1285 ft 18 kts 74°
2026-05-06 18:21 48.68934 9.20549 1287 ft 19 kts 74°
2026-05-06 18:22 48.68972 9.20748 1285 ft 20 kts 74°
2026-05-06 18:22 48.69011 9.20954 1288 ft 21 kts 74°
2026-05-06 18:22 48.69054 9.21181 1288 ft 24 kts 73°
2026-05-06 18:22 48.69097 9.21406 1288 ft 21 kts 74°
2026-05-06 18:23 48.69136 9.21611 1288 ft 19 kts 74°
2026-05-06 18:23 48.69171 9.21794 1286 ft 17 kts 74°
2026-05-06 18:23 48.69202 9.21955 1285 ft 15 kts 73°
2026-05-06 18:23 48.69230 9.22103 1285 ft 17 kts 74°
2026-05-06 18:24 48.69272 9.22327 1285 ft 28 kts 73°
2026-05-06 18:24 48.69333 9.22646 1285 ft 32 kts 74°
2026-05-06 18:24 48.69391 9.22955 1285 ft 29 kts 74°
2026-05-06 18:24 48.69446 9.23244 1285 ft 29 kts 74°
2026-05-06 18:25 48.69502 9.23540 1285 ft 30 kts 74°
2026-05-06 18:25 48.69540 9.23741 1287 ft 30 kts 74°
2026-05-06 18:25 48.69588 9.23989 1286 ft 20 kts 73°
2026-05-06 18:25 48.69610 9.24146 1285 ft 14 kts 99°
2026-05-06 18:26 48.69578 9.24246 1266 ft 1 kts 121°
2026-05-06 18:28 48.69566 9.24268 1291 ft 5 kts 132°
2026-05-06 18:28 48.69527 9.24302 1285 ft 7 kts 161°
2026-05-06 18:28 48.69497 9.24315 1287 ft 0 kts 163°
2026-05-06 18:31 48.69491 9.24318 1285 ft 4 kts 163°
2026-05-06 18:31 48.69440 9.24337 1287 ft 9 kts 167°
2026-05-06 18:31 48.69390 9.24307 1287 ft 8 kts 243°
2026-05-06 18:32 48.69382 9.24268 1285 ft 0 kts 253°
2026-05-06 18:32 48.69374 9.24231 1288 ft 17 kts 253°
2026-05-06 18:32 48.69273 9.23695 1286 ft 86 kts 254°
2026-05-06 18:32 48.69057 9.22560 1290 ft 137 kts 254°
2026-05-06 18:33 48.68758 9.21013 1503 ft 158 kts 253°
2026-05-06 18:33 48.68473 9.19415 2182 ft 156 kts 253°
2026-05-06 18:33 48.68173 9.17844 2887 ft 155 kts 253°
2026-05-06 18:33 48.67848 9.16191 3276 ft 175 kts 253°
2026-05-06 18:34 48.67475 9.14312 3615 ft 198 kts 253°
2026-05-06 18:34 48.67061 9.12194 4039 ft 219 kts 257°
2026-05-06 18:34 48.67179 9.09893 4712 ft 229 kts 294°
2026-05-06 18:34 48.68050 9.07831 5482 ft 237 kts 306°
2026-05-06 18:35 48.69358 9.06209 6059 ft 258 kts 332°
2026-05-06 18:35 48.71089 9.05192 6650 ft 272 kts 337°
2026-05-06 18:35 48.72881 9.04189 7426 ft 277 kts 337°
2026-05-06 18:35 48.74706 9.03164 8212 ft 282 kts 337°
2026-05-06 18:36 48.76558 9.02117 9024 ft 286 kts 337°
2026-05-06 18:36 48.78434 9.01053 9807 ft 290 kts 337°
2026-05-06 18:36 48.80364 8.99958 10258 ft 306 kts 337°
2026-05-06 18:36 48.82433 8.98783 10429 ft 329 kts 338°
2026-05-06 18:37 48.84635 8.97531 10800 ft 343 kts 337°
2026-05-06 18:37 48.86884 8.96252 11418 ft 348 kts 338°
2026-05-06 18:37 48.89166 8.94962 12083 ft 352 kts 338°
2026-05-06 18:37 48.91473 8.93658 12735 ft 356 kts 338°
2026-05-06 18:38 48.93809 8.92331 13392 ft 360 kts 338°
2026-05-06 18:38 48.96169 8.90986 14004 ft 364 kts 338°
2026-05-06 18:38 48.98562 8.89621 14588 ft 368 kts 338°
2026-05-06 18:38 49.00967 8.88244 15167 ft 372 kts 338°
2026-05-06 18:39 49.03393 8.86854 15777 ft 375 kts 339°
2026-05-06 18:39 49.05852 8.85443 16332 ft 379 kts 338°
2026-05-06 18:39 49.08351 8.84002 16893 ft 383 kts 338°
2026-05-06 18:40 49.13319 8.81137 18109 ft 389 kts 339°
2026-05-06 18:40 49.15931 8.80017 18648 ft 393 kts 349°
2026-05-06 18:40 49.18664 8.79620 19149 ft 398 kts 359°
2026-05-06 18:40 49.21438 8.79483 19695 ft 400 kts 351°
2026-05-06 18:41 49.24090 8.78227 20266 ft 402 kts 333°
2026-05-06 18:41 49.26474 8.75985 20805 ft 404 kts 321°
2026-05-06 18:41 49.28552 8.73080 21323 ft 406 kts 311°
2026-05-06 18:41 49.30284 8.69661 21819 ft 408 kts 302°
2026-05-06 18:42 49.31856 8.66026 22302 ft 411 kts 301°
2026-05-06 18:42 49.33208 8.62158 22782 ft 412 kts 291°
2026-05-06 18:42 49.34181 8.58025 23245 ft 415 kts 287°
2026-05-06 18:42 49.35112 8.53816 23661 ft 418 kts 287°
2026-05-06 18:43 49.36049 8.49594 24054 ft 420 kts 287°
2026-05-06 18:43 49.36998 8.45340 24443 ft 423 kts 287°
2026-05-06 18:43 49.37958 8.41055 24826 ft 425 kts 287°
2026-05-06 18:43 49.38916 8.36761 25198 ft 427 kts 287°
2026-05-06 18:44 49.39880 8.32438 25566 ft 430 kts 287°
2026-05-06 18:44 49.40854 8.28078 25931 ft 432 kts 288°
2026-05-06 18:44 49.41828 8.23702 26290 ft 434 kts 287°
2026-05-06 18:44 49.42791 8.19284 26643 ft 436 kts 285°
2026-05-06 18:45 49.43535 8.14759 26996 ft 438 kts 282°
2026-05-06 18:45 49.44464 8.10287 27340 ft 442 kts 292°
2026-05-06 18:45 49.45904 8.06102 27703 ft 445 kts 303°
2026-05-06 18:45 49.47816 8.02348 28094 ft 447 kts 313°
2026-05-06 18:46 49.50140 7.99155 28458 ft 450 kts 323°
2026-05-06 18:46 49.52811 7.96619 28806 ft 452 kts 332°
2026-05-06 18:46 49.55552 7.94235 29134 ft 454 kts 326°
2026-05-06 18:46 49.58058 7.91280 29504 ft 454 kts 317°
2026-05-06 18:47 49.60300 7.87868 29973 ft 452 kts 314°
2026-05-06 18:47 49.62511 7.84422 30366 ft 452 kts 314°
2026-05-06 18:47 49.64729 7.80983 30743 ft 452 kts 314°
2026-05-06 18:47 49.66919 7.77594 31111 ft 452 kts 313°
2026-05-06 18:48 49.69135 7.74155 31487 ft 452 kts 313°
2026-05-06 18:48 49.71380 7.70664 31869 ft 452 kts 313°
2026-05-06 18:48 49.73439 7.67095 32241 ft 450 kts 305°
2026-05-06 18:48 49.75159 7.63073 32633 ft 448 kts 298°
2026-05-06 18:49 49.76740 7.58929 33031 ft 447 kts 298°
2026-05-06 18:49 49.78325 7.54798 33459 ft 446 kts 298°
2026-05-06 18:49 49.79909 7.50679 33888 ft 445 kts 298°
2026-05-06 18:49 49.81489 7.46570 34233 ft 444 kts 298°
2026-05-06 18:50 49.83064 7.42463 34574 ft 443 kts 298°
2026-05-06 18:50 49.84631 7.38361 34894 ft 442 kts 297°
2026-05-06 18:50 49.86190 7.34258 35197 ft 442 kts 297°
2026-05-06 18:50 49.87745 7.30154 35498 ft 441 kts 297°
2026-05-06 18:51 49.89293 7.26066 35805 ft 440 kts 298°
2026-05-06 18:51 49.90843 7.21971 36126 ft 439 kts 298°
2026-05-06 18:51 49.92386 7.17887 36397 ft 438 kts 298°
2026-05-06 18:51 49.93919 7.13804 36674 ft 438 kts 297°
2026-05-06 18:52 49.95411 7.09691 36943 ft 437 kts 296°
2026-05-06 18:52 49.96863 7.05552 37194 ft 436 kts 296°
2026-05-06 18:52 49.98291 7.01396 37437 ft 436 kts 295°
2026-05-06 18:52 49.99717 6.97212 37700 ft 436 kts 295°
2026-05-06 18:53 50.01129 6.93072 37823 ft 437 kts 295°
2026-05-06 18:53 50.04020 6.84663 37870 ft 444 kts 296°
2026-05-06 18:54 50.06969 6.76186 37848 ft 446 kts 296°
2026-05-06 18:54 50.09922 6.67690 37850 ft 446 kts 296°
2026-05-06 18:55 50.12856 6.59169 37847 ft 446 kts 296°
2026-05-06 18:55 50.15787 6.50626 37869 ft 447 kts 295°
2026-05-06 18:56 50.18707 6.42072 37910 ft 447 kts 296°
2026-05-06 18:56 50.21614 6.33552 37907 ft 447 kts 296°
2026-05-06 18:57 50.24535 6.24980 37924 ft 447 kts 296°
2026-05-06 18:57 50.27446 6.16387 37930 ft 447 kts 296°
2026-05-06 18:58 50.30336 6.07790 37930 ft 446 kts 295°
2026-05-06 18:58 50.33224 5.99195 37932 ft 446 kts 296°
2026-05-06 18:59 50.36113 5.90594 37942 ft 446 kts 296°
2026-05-06 18:59 50.38992 5.81974 37927 ft 447 kts 295°
2026-05-06 19:00 50.41866 5.73334 37926 ft 447 kts 295°
2026-05-06 19:00 50.44730 5.64688 37935 ft 447 kts 295°
2026-05-06 19:01 50.47598 5.56029 37950 ft 447 kts 296°
2026-05-06 19:01 50.50455 5.47365 37944 ft 447 kts 295°
2026-05-06 19:02 50.53305 5.38700 37951 ft 446 kts 295°
2026-05-06 19:02 50.56144 5.30020 37938 ft 446 kts 295°
2026-05-06 19:03 50.58974 5.21327 37945 ft 446 kts 295°
2026-05-06 19:03 50.61783 5.12697 37944 ft 446 kts 295°
2026-05-06 19:04 50.64594 5.03998 37956 ft 446 kts 295°
2026-05-06 19:04 50.67396 4.95290 37950 ft 445 kts 295°
2026-05-06 19:05 50.70194 4.86580 37963 ft 445 kts 295°
2026-05-06 19:05 50.72996 4.77867 37956 ft 445 kts 295°
2026-05-06 19:06 50.75794 4.69136 37957 ft 445 kts 295°
2026-05-06 19:06 50.78574 4.60397 37981 ft 445 kts 295°
2026-05-06 19:07 50.81343 4.51650 37978 ft 445 kts 295°
2026-05-06 19:07 50.84103 4.42897 37976 ft 445 kts 295°
2026-05-06 19:08 50.86856 4.34136 37966 ft 445 kts 295°
2026-05-06 19:08 50.89608 4.25358 37967 ft 445 kts 295°
2026-05-06 19:09 50.92356 4.16583 37967 ft 445 kts 295°
2026-05-06 19:09 50.95098 4.07798 37962 ft 445 kts 295°
2026-05-06 19:10 50.97823 3.98996 37959 ft 445 kts 294°
2026-05-06 19:10 51.00542 3.90184 37958 ft 445 kts 294°
2026-05-06 19:11 51.03262 3.81361 37961 ft 445 kts 295°
2026-05-06 19:11 51.05981 3.72538 37960 ft 444 kts 295°
2026-05-06 19:12 51.08232 3.65203 37965 ft 444 kts 294°
2026-05-06 19:12 51.10926 3.56357 37974 ft 444 kts 294°
2026-05-06 19:13 51.14049 3.46059 37967 ft 444 kts 294°
2026-05-06 19:13 51.16288 3.38626 37975 ft 444 kts 294°
2026-05-06 19:14 51.18942 3.29819 37991 ft 444 kts 294°
2026-05-06 19:14 51.21611 3.20954 37995 ft 443 kts 294°
2026-05-06 19:15 51.24272 3.12091 37994 ft 443 kts 294°
2026-05-06 19:15 51.26917 3.03218 37997 ft 443 kts 294°
2026-05-06 19:16 51.29549 2.94337 38005 ft 442 kts 294°
2026-05-06 19:16 51.32180 2.85457 38006 ft 442 kts 294°
2026-05-06 19:17 51.34759 2.76552 37998 ft 440 kts 289°
2026-05-06 19:17 51.36224 2.67117 38004 ft 437 kts 280°
2026-05-06 19:18 51.37391 2.57574 38001 ft 436 kts 280°
2026-05-06 19:18 51.38565 2.48042 38005 ft 437 kts 280°
2026-05-06 19:19 51.39727 2.38504 38015 ft 436 kts 280°
2026-05-06 19:19 51.40869 2.28957 38013 ft 436 kts 280°
2026-05-06 19:20 51.42013 2.19480 38011 ft 436 kts 280°
2026-05-06 19:20 51.43183 2.09933 38019 ft 436 kts 280°
2026-05-06 19:21 51.44335 2.00389 38015 ft 436 kts 280°
2026-05-06 19:21 51.45472 1.90838 38021 ft 436 kts 280°
2026-05-06 19:22 51.46589 1.81281 38023 ft 436 kts 280°
2026-05-06 19:22 51.47692 1.71723 38022 ft 436 kts 279°
2026-05-06 19:23 51.48786 1.62165 38019 ft 436 kts 279°
2026-05-06 19:23 51.49876 1.52607 38023 ft 436 kts 279°
2026-05-06 19:24 51.50955 1.43035 38024 ft 435 kts 279°
2026-05-06 19:24 51.52032 1.33467 38025 ft 436 kts 279°
2026-05-06 19:25 51.53098 1.23890 38026 ft 436 kts 279°
2026-05-06 19:25 51.54156 1.14297 38027 ft 436 kts 279°
2026-05-06 19:26 51.55207 1.04708 38025 ft 436 kts 279°
2026-05-06 19:26 51.56245 0.95109 38028 ft 436 kts 279°
2026-05-06 19:27 51.57275 0.85577 38061 ft 436 kts 279°
2026-05-06 19:27 51.58309 0.75956 38060 ft 436 kts 279°
2026-05-06 19:28 51.59322 0.66335 38054 ft 436 kts 279°
2026-05-06 19:28 51.60329 0.56702 38051 ft 437 kts 279°
2026-05-06 19:29 51.61333 0.47076 38051 ft 437 kts 279°
2026-05-06 19:29 51.62334 0.37429 38045 ft 437 kts 279°
2026-05-06 19:30 51.63321 0.27792 38047 ft 436 kts 279°
2026-05-06 19:30 51.64671 0.18285 38043 ft 437 kts 291°
2026-05-06 19:31 51.67816 0.09955 38041 ft 438 kts 311°
2026-05-06 19:31 51.74198 -0.00533 38062 ft 439 kts 313°
2026-05-06 19:32 51.78470 -0.07591 38069 ft 439 kts 313°
2026-05-06 19:32 51.82734 -0.14668 38078 ft 440 kts 313°
2026-05-06 19:33 51.86998 -0.21746 38059 ft 439 kts 313°
2026-05-06 19:33 51.91260 -0.28846 38058 ft 439 kts 313°
2026-05-06 19:34 51.95524 -0.35943 38058 ft 439 kts 313°
2026-05-06 19:34 51.99781 -0.43061 38052 ft 439 kts 313°
2026-05-06 19:35 52.04032 -0.50186 38053 ft 439 kts 313°
2026-05-06 19:35 52.08273 -0.57321 38060 ft 438 kts 313°
2026-05-06 19:36 52.12487 -0.64443 37896 ft 435 kts 313°
2026-05-06 19:36 52.14589 -0.67995 37277 ft 435 kts 313°
2026-05-06 19:36 52.16691 -0.71552 36672 ft 435 kts 312°
2026-05-06 19:37 52.18785 -0.75102 36081 ft 434 kts 312°
2026-05-06 19:37 52.20867 -0.78643 35500 ft 433 kts 312°
2026-05-06 19:37 52.22948 -0.82187 34922 ft 432 kts 312°
2026-05-06 19:37 52.24390 -0.84418 34536 ft 432 kts 318°
2026-05-06 19:38 52.27696 -0.88183 33727 ft 433 kts 326°
2026-05-06 19:38 52.30270 -0.90734 32991 ft 434 kts 326°
2026-05-06 19:38 52.32849 -0.93298 32214 ft 435 kts 326°
2026-05-06 19:38 52.35436 -0.95876 31334 ft 437 kts 326°
2026-05-06 19:39 52.38033 -0.98467 30629 ft 437 kts 326°
2026-05-06 19:39 52.40616 -1.01048 30013 ft 433 kts 326°
2026-05-06 19:39 52.43187 -1.03620 29199 ft 432 kts 326°
2026-05-06 19:39 52.45750 -1.06187 28352 ft 431 kts 327°
2026-05-06 19:40 52.48309 -1.08751 27536 ft 430 kts 327°
2026-05-06 19:40 52.50858 -1.11312 26729 ft 429 kts 327°
2026-05-06 19:40 52.53390 -1.13865 25968 ft 427 kts 327°
2026-05-06 19:40 52.55921 -1.16418 25210 ft 425 kts 327°
2026-05-06 19:41 52.58403 -1.18922 24490 ft 423 kts 327°
2026-05-06 19:41 52.60909 -1.21451 23766 ft 421 kts 327°
2026-05-06 19:41 52.63401 -1.23969 22957 ft 419 kts 327°
2026-05-06 19:41 52.65878 -1.26474 22135 ft 417 kts 327°
2026-05-06 19:42 52.68340 -1.28968 21331 ft 414 kts 327°
2026-05-06 19:42 52.70785 -1.31452 20558 ft 411 kts 327°
2026-05-06 19:42 52.73213 -1.33925 19801 ft 409 kts 327°
2026-05-06 19:42 52.75628 -1.36384 19112 ft 407 kts 327°
2026-05-06 19:43 52.78031 -1.38834 18402 ft 405 kts 327°
2026-05-06 19:43 52.80420 -1.41276 17587 ft 403 kts 327°
2026-05-06 19:43 52.82805 -1.43718 16813 ft 401 kts 327°
2026-05-06 19:43 52.85158 -1.46130 16283 ft 394 kts 327°
2026-05-06 19:44 52.87483 -1.48511 15661 ft 391 kts 327°
2026-05-06 19:44 52.89785 -1.50870 15033 ft 388 kts 327°
2026-05-06 19:44 52.92075 -1.53207 14414 ft 385 kts 327°
2026-05-06 19:44 52.94227 -1.55785 13797 ft 380 kts 315°
2026-05-06 19:45 52.95737 -1.59321 13253 ft 373 kts 294°
2026-05-06 19:45 52.96548 -1.63340 12846 ft 362 kts 288°
2026-05-06 19:45 52.97376 -1.67220 12451 ft 352 kts 290°
2026-05-06 19:45 52.98210 -1.70990 12055 ft 346 kts 290°
2026-05-06 19:46 52.99038 -1.74727 11673 ft 343 kts 290°
2026-05-06 19:46 52.99861 -1.78441 11295 ft 341 kts 290°
2026-05-06 19:46 53.00677 -1.82118 10917 ft 338 kts 290°
2026-05-06 19:46 53.01481 -1.85746 10537 ft 331 kts 290°
2026-05-06 19:47 53.02264 -1.89286 10226 ft 320 kts 290°
2026-05-06 19:47 53.02997 -1.92611 10105 ft 294 kts 290°
2026-05-06 19:47 53.03676 -1.95712 9740 ft 281 kts 291°
2026-05-06 19:47 53.04333 -1.98735 9274 ft 277 kts 290°
2026-05-06 19:48 53.04975 -2.01724 8985 ft 273 kts 290°
2026-05-06 19:48 53.05609 -2.04680 8655 ft 271 kts 290°
2026-05-06 19:48 53.06248 -2.07617 8318 ft 269 kts 290°
2026-05-06 19:48 53.06885 -2.10538 7993 ft 268 kts 290°
2026-05-06 19:49 53.07517 -2.13445 7670 ft 267 kts 290°
2026-05-06 19:49 53.08146 -2.16336 7376 ft 265 kts 290°
2026-05-06 19:49 53.08766 -2.19191 7136 ft 260 kts 290°
2026-05-06 19:49 53.09381 -2.22026 7027 ft 262 kts 290°
2026-05-06 19:50 53.10001 -2.24889 7033 ft 263 kts 290°
2026-05-06 19:50 53.10621 -2.27754 7037 ft 263 kts 290°
2026-05-06 19:50 53.11247 -2.30619 7039 ft 263 kts 293°
2026-05-06 19:50 53.12250 -2.33095 6969 ft 255 kts 315°
2026-05-06 19:51 53.13561 -2.35009 6629 ft 248 kts 320°
2026-05-06 19:51 53.14882 -2.36805 6171 ft 243 kts 320°
2026-05-06 19:51 53.16182 -2.38555 5693 ft 238 kts 320°
2026-05-06 19:51 53.17455 -2.40272 5224 ft 233 kts 320°
2026-05-06 19:52 53.18710 -2.41953 4760 ft 230 kts 320°
2026-05-06 19:52 53.19945 -2.43616 4293 ft 226 kts 320°
2026-05-06 19:52 53.21155 -2.45263 3849 ft 223 kts 320°
2026-05-06 19:52 53.22348 -2.46900 3376 ft 222 kts 321°
2026-05-06 19:53 53.23678 -2.48013 3002 ft 211 kts 355°
2026-05-06 19:53 53.25024 -2.47572 2795 ft 192 kts 36°
2026-05-06 19:53 53.25959 -2.46018 2550 ft 185 kts 54°
2026-05-06 19:53 53.26745 -2.44376 2292 ft 182 kts 55°
2026-05-06 19:54 53.27531 -2.42747 2041 ft 171 kts 54°
2026-05-06 19:54 53.28233 -2.41305 1846 ft 151 kts 54°
2026-05-06 19:54 53.28872 -2.39988 1630 ft 140 kts 55°
2026-05-06 19:54 53.29469 -2.38758 1432 ft 137 kts 54°
2026-05-06 19:55 53.30062 -2.37534 1240 ft 135 kts 54°
2026-05-06 19:55 53.30652 -2.36317 1019 ft 135 kts 54°
2026-05-06 19:55 53.31237 -2.35109 827 ft 134 kts 54°
2026-05-06 19:55 53.31823 -2.33897 665 ft 135 kts 53°
2026-05-06 19:56 53.32416 -2.32673 471 ft 135 kts 53°
2026-05-06 19:56 53.33007 -2.31455 283 ft 134 kts 52°
2026-05-06 19:56 53.33571 -2.30276 206 ft 116 kts 52°
2026-05-06 19:56 53.33939 -2.29525 209 ft 63 kts 51°
2026-05-06 19:57 53.34193 -2.28999 219 ft 55 kts 51°
2026-05-06 19:57 53.34409 -2.28618 221 ft 31 kts 33°
2026-05-06 19:57 53.34531 -2.28520 225 ft 17 kts 22°
2026-05-06 19:57 53.34649 -2.28441 227 ft 19 kts 21°
2026-05-06 19:58 53.34746 -2.28327 230 ft 13 kts 51°
2026-05-06 19:58 53.34801 -2.28214 231 ft 13 kts 51°
2026-05-06 19:58 53.34864 -2.28083 233 ft 17 kts 51°
2026-05-06 19:58 53.34955 -2.27896 237 ft 24 kts 51°
2026-05-06 19:59 53.35069 -2.27657 239 ft 28 kts 51°
2026-05-06 19:59 53.35150 -2.27489 242 ft 28 kts 51°
2026-05-06 19:59 53.35257 -2.27270 245 ft 18 kts 50°
2026-05-06 19:59 53.35330 -2.27191 248 ft 11 kts 10°
2026-05-06 20:00 53.35398 -2.27228 253 ft 10 kts 326°
2026-05-06 20:00 53.35467 -2.27320 256 ft 16 kts 321°
2026-05-06 20:00 53.35567 -2.27454 256 ft 20 kts 321°
2026-05-06 20:00 53.35680 -2.27606 256 ft 20 kts 325°
2026-05-06 20:01 53.35803 -2.27724 255 ft 22 kts 315°
2026-05-06 20:01 53.35912 -2.27849 255 ft 17 kts
2026-05-06 20:01 53.36036 -2.27831 255 ft 19 kts
2026-05-06 20:01 53.36130 -2.27967 255 ft 18 kts 314°
2026-05-06 20:02 53.36193 -2.28073 255 ft 10 kts 315°
2026-05-06 20:02 53.36247 -2.28162 255 ft 12 kts 316°
2026-05-06 20:02 53.36316 -2.28273 255 ft 15 kts 315°
2026-05-06 20:02 53.36399 -2.28409 255 ft 18 kts 313°
2026-05-06 20:03 53.36454 -2.28606 255 ft 18 kts 297°
2026-05-06 20:03 53.36532 -2.28753 255 ft 18 kts 315°
2026-05-06 20:03 53.36637 -2.28890 255 ft 18 kts 338°
2026-05-06 20:03 53.36731 -2.29021 255 ft 19 kts 317°
2026-05-06 20:04 53.36834 -2.28995 255 ft 17 kts 45°
2026-05-06 20:04 53.36927 -2.28840 255 ft 20 kts 44°
2026-05-06 20:04 53.36998 -2.28710 255 ft 10 kts 71°
2026-05-06 20:04 53.36977 -2.28656 255 ft 0 kts 137°